Showing default

HG-03, 61503

Orbit data source: Space-Track

HG-03, 61503 is a payload satellite owned by CNSA (CN) in GEO that was launched on Thu, 10 Oct 2024 UTC via a CHANG ZHENG 3B launch vehicle from the Xichang Space Center, China (XSC). Payload-class satellites include a variety of spacecraft equipped with specific instruments for various scientific and technological missions. These include communications satellites like Starlink; space stations such as the ISS; scientific satellites like the Hubble; Earth observation satellites from companies like Planet Labs, Umbra, and HawkEye 360; GPS; miniature CubeSats for education and research; and military/defense satellites.

Loading next visibility...
Identifier
61503, 2024-181A
Orbit
GEO
Country
Flag of CNCN / PRC
Related business
Manufacturer
CAST
Mission
Operational Civil Communications
Bus & Motor
DFH-4?, FY-25?
Mass
~4,000 kg wet, ~2,000 kg dry
Launch date (UTC)
2024-10-10 (2 years ago)
Launch vehicle
CHANG ZHENG 3B
Launch site
Xichang Space Center, China (XSC)
Object type
Payload
Rocket body
Debris
Shape & HBR
Box + 2 Pan, 10.0 m
Radar Cross Section
17.671 m², Large (>1 m²)

Expand to show TLE details & history
Last TLE update: 23 hours ago

TLE from 23 hours ago
0 HG-03
1 61503U 24181A   26170.87770185 -.00000246  00000-0  00000-0 0  9993
2 61503   0.0459 358.3743 0001138  95.3158  53.2376  1.00270259  6853
Epoch: 2026-06-19T21:03Z
TLE epoch observation values (Epoch: 2026-06-19T21:03:53.439Z)
Latitude
0.03524°
Longitude
-77.12231°
Altitude
35,783.629 km
Speed
3.075 km/s
True Right ascension
09h 47m 48s
True Declination
0° 02' 07"
Sunlit
Object was in daylight at epoch
Visualization orbit readout
Latitude
Unknown
Longitude
Unknown
Altitude
Unknown
Speed
Unknown
Apparent Right ascension
Unknown
Apparent Declination
Unknown
Sunlit
N/A
Visualization observer readout
Local Sidereal Time
07:21:22
Azimuth
Unknown
Elevation
Unknown
Doppler factor
Unknown
Orbital elements
Apogee altitude
35,792.892 km
Perigee altitude
35,783.295 km
Semi-major axis
42,166.23 km
Eccentricity
0.00011
Inclination
0.0459°
RAAN
358.3743°
Arg. of periapsis
95.3158°
True anomaly
53.24805°
Mean anomaly
53.2376°
Eccentric anomaly
53.24282°
Mean motion
0.25067 °/min
Orbital period
1,436.17 mins
BSTAR
0
Loading maneuver chart data...
Computing Atmospheric mass density...
Loading historical data...
Loading historical data...
Loading historical data...
Loading historical data...
Loading historical data...
Loading historical data...
Loading historical data...
Other satellites on launch #181 in the year 2024 (2024-10-10 UTC)

Documentation

Showing up to 5 results
|